DW9007 Weather Reports


Display with metric or nautical units.
time (UTC)temp
F
wind
direction
speed
MPH
gust
MPH
rain 1hr
in
rain 24hr
in
rain mn
in
humidity
%
barometer
mb
20260831191535 90 81 1.0 6.0 0.00 0.00 0.00 63 1017.0
20260831190044 90 131 1.0 5.0 0.00 0.00 0.00 63 1017.2
20260831184521 89 105 0.0 5.0 0.00 0.00 0.00 64 1017.4
20260831183013 89 112 2.0 5.0 0.00 0.00 0.00 64 1017.6
20260831181556 89 71 0.0 4.0 0.00 0.00 0.00 67 1017.7
20260831180056 88 113 0.0 4.0 0.00 0.00 0.00 67 1018.0
20260831174538 88 328 2.0 5.0 0.00 0.00 0.00 68 1018.1
20260831173040 87 113 0.0 4.0 0.00 0.00 0.00 69 1018.2
20260831171519 86 105 1.0 3.0 0.00 0.00 0.00 70 1018.5
20260831170022 86 67 0.0 4.0 0.00 0.00 0.00 72 1018.6
20260831164504 86 88 0.0 2.0 0.00 0.00 0.00 75 1018.7
20260831163003 86 24 0.0 3.0 0.00 0.00 0.00 75 1018.9
20260831161543 86 19 1.0 4.0 0.00 0.00 0.00 75 1019.0
20260831160047 85 153 0.0 0.0 0.00 0.00 0.00 79 1019.1
20260831154526 84 152 0.0 2.0 0.00 0.00 0.00 80 1019.2
20260831153024 83 182 0.0 2.0 0.00 0.00 0.00 81 1019.1
20260831151517 82 180 0.0 0.0 0.00 0.00 0.00 84 1019.1
20260831150005 81 253 0.0 1.0 0.00 0.00 0.00 86 1019.1
20260831144551 80 227 0.0 1.0 0.00 0.00 0.00 87 1019.2
20260831143056 79 229 0.0 0.0 0.00 0.00 0.00 89 1019.1
20260831141530 78 225 0.0 2.0 0.00 0.00 0.00 90 1019.0
20260831140038 77 225 0.0 0.0 0.00 0.00 0.00 92 1019.2
20260831134511 77 225 0.0 1.0 0.00 0.00 0.00 92 1019.1
20260831133010 76 92 0.0 0.0 0.00 0.00 0.00 94 1019.2
20260831131556 75 92 0.0 0.0 0.00 0.00 0.00 94 1019.3
20260831130058 74 92 0.0 0.0 0.00 0.00 0.00 95 1019.2
20260831124544 73 92 0.0 0.0 0.00 0.00 0.00 95 1018.9
20260831123031 73 92 0.0 0.0 0.00 0.00 0.00 94 1018.8
20260831121512 72 92 0.0 0.0 0.00 0.00 0.00 95 1018.6
20260831120010 72 92 0.0 0.0 0.00 0.00 0.00 94 1018.3
20260831114550 72 92 0.0 0.0 0.00 0.00 0.00 94 1018.1
20260831113108 72 92 0.0 0.0 0.00 0.00 0.00 94 1017.8
20260831111529 72 92 0.0 0.0 0.00 0.00 0.00 94 1017.6
20260831110028 72 92 0.0 0.0 0.00 0.00 0.00 94 1017.5
20260831104514 72 92 0.0 0.0 0.00 0.00 0.00 94 1017.4
20260831103014 72 92 0.0 0.0 0.00 0.00 0.00 94 1017.3
20260831101513 72 92 0.0 0.0 0.00 0.00 0.00 93 1017.3
20260831100012 72 92 0.0 0.0 0.00 0.00 0.00 93 1017.2
20260831094510 72 92 0.0 0.0 0.00 0.00 0.00 93 1017.1
20260831093008 73 92 0.0 0.0 0.00 0.00 0.00 93 1017.1
20260831091508 73 92 0.0 0.0 0.00 0.00 0.00 93 1017.0
20260831090008 73 92 0.0 0.0 0.00 0.00 0.00 92 1016.9
20260831084549 73 92 0.0 0.0 0.00 0.00 0.00 92 1016.8
20260831083050 73 92 0.0 0.0 0.00 0.00 0.00 92 1016.7
20260831081529 74 92 0.0 0.0 0.00 0.00 0.00 92 1016.6
20260831080034 74 92 0.0 0.0 0.00 0.00 0.00 92 1016.6
20260831074512 74 92 0.0 0.0 0.00 0.00 0.00 92 1016.6
20260831073010 74 92 0.0 0.0 0.00 0.00 0.00 92 1016.6
20260831071555 74 92 0.0 0.0 0.00 0.00 0.00 91 1016.6
20260831070052 74 92 0.0 0.0 0.00 0.00 0.00 91 1016.6
20260831064533 74 92 0.0 0.0 0.00 0.00 0.00 91 1016.7
20260831063031 74 92 0.0 0.0 0.00 0.00 0.00 91 1016.7
20260831061514 75 92 0.0 0.0 0.00 0.00 0.00 91 1016.6
20260831060012 75 92 0.0 0.0 0.00 0.00 0.00 90 1016.8
20260831054600 75 92 0.0 0.0 0.00 0.00 0.00 90 1016.6
20260831053100 75 92 0.0 0.0 0.00 0.00 0.00 89 1016.7
20260831051608 75 92 0.0 0.0 0.00 0.00 0.00 89 1016.7
20260831050058 75 92 0.0 0.0 0.00 0.00 0.00 88 1016.8
20260831044607 76 92 0.0 0.0 0.00 0.00 0.00 87 1017.0
20260831043055 76 92 0.0 0.0 0.00 0.00 0.00 87 1016.8
20260831041555 76 92 0.0 0.0 0.00 0.00 0.00 87 1016.8
20260831040052 77 92 0.0 0.0 0.00 0.00 0.00 86 1016.8
20260831034542 77 92 0.0 0.0 0.00 0.00 0.00 86 1016.8
20260831033032 77 92 0.0 0.0 0.00 0.00 0.00 85 1016.9
20260831031513 77 92 0.0 0.0 0.00 0.00 0.00 84 1016.9
20260831030013 78 92 0.0 0.0 0.00 0.00 0.00 84 1016.8
20260831024611 78 92 0.0 0.0 0.00 0.00 0.00 83 1016.8
20260831023052 78 92 0.0 0.0 0.00 0.00 0.00 83 1016.7
20260831021551 78 92 0.0 0.0 0.00 0.00 0.00 82 1016.8
20260831020032 79 92 0.0 0.0 0.00 0.00 0.00 81 1016.6
20260831014531 79 92 0.0 0.0 0.00 0.00 0.00 80 1016.5
20260831013011 80 92 0.0 0.0 0.00 0.00 0.00 79 1016.3
20260831011509 80 92 0.0 0.0 0.00 0.00 0.00 77 1016.2
20260831010053 81 92 0.0 0.0 0.00 0.00 0.00 76 1016.1
20260831004546 82 92 0.0 0.0 0.00 0.00 0.00 75 1016.1
20260831003034 83 92 0.0 0.0 0.00 0.00 0.00 73 1016.0
20260831001522 84 92 0.0 0.0 0.00 0.00 0.00 71 1016.0
20260831000100 85 92 0.0 0.0 0.00 0.00 0.00 69 1015.8
20260830234557 87 92 0.0 0.0 0.00 0.00 0.00 67 1015.9
20260830233040 88 92 0.0 2.0 0.00 0.00 0.00 65 1015.8
20260830231539 88 92 0.0 0.0 0.00 0.00 0.00 63 1015.7
20260830230023 89 92 0.0 2.0 0.00 0.00 0.00 61 1015.6
20260830224522 89 93 0.0 5.0 0.00 0.00 0.00 60 1015.5
20260830223005 90 109 0.0 3.0 0.00 0.00 0.00 59 1015.5
20260830221503 90 107 0.0 4.0 0.00 0.00 0.00 60 1015.5
20260830220046 90 98 1.0 5.0 0.00 0.00 0.00 59 1015.5
20260830214546 90 110 0.0 3.0 0.00 0.00 0.00 58 1015.6
20260830213025 90 126 2.0 9.0 0.00 0.00 0.00 57 1015.8
20260830211524 90 88 2.0 5.0 0.00 0.00 0.00 58 1015.9
20260830210006 90 87 1.0 6.0 0.00 0.00 0.00 59 1015.9
20260830204502 90 103 1.0 8.0 0.00 0.00 0.00 59 1016.0
20260830203043 89 136 0.0 8.0 0.00 0.00 0.00 61 1016.3
20260830201540 89 60 1.0 3.0 0.00 0.00 0.00 60 1016.5
20260830200039 89 165 0.0 2.0 0.00 0.00 0.00 62 1016.6
20260830194520 89 80 0.0 3.0 0.00 0.00 0.00 64 1016.8
20260830193059 88 104 0.0 5.0 0.00 0.00 0.00 65 1016.9